map of XPR home
Great Circle Mapper logo
XPR - Airport
Location
City:  Pine Ridge, South Dakota, United States
ICAO / IATA:KIEN / XPR
FAA:IEN

Details
Type:Airport (Airfield)
Use:Public/Civil
Latitude:4301'17"N (43.021274)
Longitude:10230'24"W (-102.506605)
Datum:WGS 1984
Elevation:3332 ft (1016 m)
Variation:7.29E (WMM2015 magnetic declination)
-0.10 annual change
Runways:1
Longest:5000 × 75 ft (1524 × 23 m), paved

Time
Time Zone:UTC-7 (DST-6)
Local Time:

Weather
METAR:KIEN 221352Z AUTO 16009KT 10SM OVC060 12/06 A3012 RMK AO2 SLP191 T01170061

Related Locations
Nearby:
Farthest:RRG: 10631 mi / 17110 km
Plaine Corail, Rodrigues Island, MU

Find:

   beyond  
but within

Other Information
Maps:
NOTAMs:
Links:
Sources:

  
flag of United States
flag of South Dakota
  

Sectional Chart

Flight Planning
at skyvector.com

Satellite Image

Google Maps Satellite View

 

Copyright © 2004-2015 Karl L. Swartz. All rights reserved.
The Great Circle Mapper name and logo are trademarks of the Great Circle Mapper.
All other trademarks mentioned herein belong to their respective owners.
Please see credits for attibutions and further copyright information.

  Follow gcmap on Facebook Follow gcmap on Twitter Follow gcmap on Google+

hCard Microformat

Geo Microformat